Location: Garos
(43.5000°N, 0.4667°W)
Time: 04:39:35
(UTC+00:00)

Cosmos 2333 - Pass Details

Date: 03 February 2023
Orbit: 828 x 867 km, 70.9° (Epoch: 26 March)

Event Time Altitude Azimuth Distance (km) Brightness Sun altitude
Rises 18:31:21 0° 184° (S) 3,355 7.5 -14.0°
Reaches altitude 10° 18:33:51 10° 179° (S) 2,428 6.7 -14.5°
Maximum altitude 18:39:07 45° 107° (ESE) 1,121 4.4 -15.4°
Enters shadow 18:43:23 16° 41° (NE) 2,082 5.8 -16.2°
